EW4427 Weather Reports


Display with metric or nautical units.
time (UTC)temp
F
wind
direction
speed
MPH
gust
MPH
rain 1hr
in
rain 24hr
in
rain mn
in
humidity
%
barometer
mb
20260510144610 53 183 3.0 5.0 0.00 0.00 0.00 47 1018.4
20260510144043 53 203 0.0 5.0 0.00 0.00 0.00 50 1018.5
20260510143545 52 192 0.0 3.0 0.00 0.00 0.00 46 1018.5
20260510143108 52 0 0.0 7.0 0.00 0.00 0.00 44 1018.5
20260510142547 52 194 1.0 7.0 0.00 0.00 0.00 51 1018.4
20260510142047 52 188 1.0 5.0 0.00 0.00 0.00 50 1018.4
20260510141550 51 181 1.0 3.0 0.00 0.00 0.00 48 1018.4
20260510141049 51 0 1.0 3.0 0.00 0.00 0.00 51 1018.4
20260510140548 51 186 0.0 4.0 0.00 0.00 0.00 52 1018.5
20260510140053 50 0 1.0 4.0 0.00 0.00 0.00 53 1018.3
20260510135547 50 186 2.0 4.0 0.00 0.00 0.00 55 1018.2
20260510135047 50 184 1.0 3.0 0.00 0.00 0.00 60 1018.2
20260510134604 50 0 0.0 2.0 0.00 0.00 0.00 58 1018.2
20260510134048 50 190 0.0 2.0 0.00 0.00 0.00 60 1018.2
20260510133549 50 0 0.0 2.0 0.00 0.00 0.00 55 1018.1
20260510133053 49 0 0.0 3.0 0.00 0.00 0.00 58 1018.2
20260510132547 49 0 0.0 3.0 0.00 0.00 0.00 61 1018.1
20260510132048 49 201 0.0 2.0 0.00 0.00 0.00 63 1018.1
20260510131551 48 0 0.0 2.0 0.00 0.00 0.00 67 1018.1
20260510131048 46 17 0.0 2.0 0.00 0.00 0.00 72 1018.1
20260510130548 44 0 0.0 1.0 0.00 0.00 0.00 80 1017.9
20260510130053 43 0 0.0 1.0 0.00 0.00 0.00 84 1017.8
20260510125547 42 0 0.0 1.0 0.00 0.00 0.00 85 1017.8
20260510125047 41 0 0.0 1.0 0.00 0.00 0.00 89 1017.8
20260510124559 41 0 0.0 1.0 0.00 0.00 0.00 90 1017.7
20260510124047 40 0 0.0 0.0 0.00 0.00 0.00 90 1017.6
20260510123545 39 0 0.0 1.0 0.00 0.00 0.00 90 1017.5
20260510123051 39 0 0.0 1.0 0.00 0.00 0.00 90 1017.5
20260510122546 38 0 0.0 0.0 0.00 0.00 0.00 90 1017.5
20260510122045 38 0 0.0 0.0 0.00 0.00 0.00 90 1017.5
20260510121551 37 0 0.0 0.0 0.00 0.00 0.00 89 1017.4
20260510121045 37 0 0.0 0.0 0.00 0.00 0.00 89 1017.3
20260510120548 36 0 0.0 0.0 0.00 0.00 0.00 88 1017.3
20260510120051 36 0 0.0 0.0 0.00 0.00 0.00 88 1017.3
20260510115545 36 0 0.0 0.0 0.00 0.00 0.00 88 1017.3
20260510115045 35 0 0.0 0.0 0.00 0.00 0.00 87 1017.2
20260510114547 35 0 0.0 0.0 0.00 0.00 0.00 87 1017.2
20260510114045 35 0 0.0 0.0 0.00 0.00 0.00 87 1017.0
20260510113547 35 0 0.0 0.0 0.00 0.00 0.00 86 1017.0
20260510113047 35 0 0.0 0.0 0.00 0.00 0.00 86 1016.9
20260510112546 35 0 0.0 0.0 0.00 0.00 0.00 86 1016.9
20260510112050 35 0 0.0 0.0 0.00 0.00 0.00 86 1016.9
20260510111555 35 0 0.0 0.0 0.00 0.00 0.00 86 1016.8
20260510111047 35 0 0.0 0.0 0.00 0.00 0.00 86 1016.6
20260510110550 35 0 0.0 0.0 0.00 0.00 0.00 86 1016.7
20260510110052 35 0 0.0 0.0 0.00 0.00 0.00 86 1016.6
20260510105544 35 0 0.0 0.0 0.00 0.00 0.00 87 1016.6
20260510105045 36 0 0.0 0.0 0.00 0.00 0.00 87 1016.5
20260510104608 36 0 0.0 0.0 0.00 0.00 0.00 86 1016.5
20260510104049 36 0 0.0 0.0 0.00 0.00 0.00 86 1016.5
20260510103545 36 0 0.0 0.0 0.00 0.00 0.00 86 1016.5
20260510103049 36 0 0.0 0.0 0.00 0.00 0.00 87 1016.4
20260510102545 36 0 0.0 1.0 0.00 0.00 0.00 87 1016.3
20260510102044 36 0 0.0 1.0 0.00 0.00 0.00 87 1016.2
20260510101549 36 0 0.0 0.0 0.00 0.00 0.00 87 1016.2
20260510101047 36 0 0.0 0.0 0.00 0.00 0.00 87 1016.1
20260510100545 36 0 0.0 0.0 0.00 0.00 0.00 87 1016.0
20260510100053 35 0 0.0 0.0 0.00 0.00 0.00 87 1016.0
20260510095549 35 0 0.0 0.0 0.00 0.00 0.00 87 1015.9
20260510095045 35 0 0.0 0.0 0.00 0.00 0.00 87 1015.8
20260510094550 35 0 0.0 0.0 0.00 0.00 0.00 87 1015.6
20260510094046 36 0 0.0 0.0 0.00 0.00 0.00 87 1015.6
20260510093547 36 0 0.0 0.0 0.00 0.00 0.00 87 1015.7
20260510093051 36 0 0.0 0.0 0.00 0.00 0.00 87 1015.6
20260510092545 36 0 0.0 0.0 0.00 0.00 0.00 87 1015.5
20260510092048 36 0 0.0 0.0 0.00 0.00 0.00 87 1015.6
20260510091550 36 0 0.0 0.0 0.00 0.00 0.00 87 1015.5
20260510091045 36 0 0.0 0.0 0.00 0.00 0.00 87 1015.4
20260510090544 36 0 0.0 0.0 0.00 0.00 0.00 87 1015.3
20260510090048 36 0 0.0 0.0 0.00 0.00 0.00 87 1015.4
20260510085546 37 0 0.0 0.0 0.00 0.00 0.00 86 1015.3
20260510085045 37 0 0.0 0.0 0.00 0.00 0.00 86 1015.1
20260510084552 37 0 0.0 0.0 0.00 0.00 0.00 85 1015.0
20260510084045 37 0 0.0 0.0 0.00 0.00 0.00 85 1015.0
20260510083545 37 0 0.0 0.0 0.00 0.00 0.00 85 1015.0
20260510083053 37 0 0.0 0.0 0.00 0.00 0.00 84 1015.0
20260510082547 37 0 0.0 0.0 0.00 0.00 0.00 84 1014.9
20260510082044 37 0 0.0 0.0 0.00 0.00 0.00 84 1015.0
20260510081608 37 0 0.0 0.0 0.00 0.00 0.00 83 1014.8
20260510081047 38 0 0.0 0.0 0.00 0.00 0.00 83 1014.6
20260510080544 38 0 0.0 0.0 0.00 0.00 0.00 83 1014.6
20260510080049 38 0 0.0 0.0 0.00 0.00 0.00 82 1014.5
20260510075544 38 0 0.0 0.0 0.00 0.00 0.00 82 1014.4
20260510075046 38 0 0.0 0.0 0.00 0.00 0.00 81 1014.4
20260510074552 39 0 0.0 0.0 0.00 0.00 0.00 81 1014.4
20260510074044 39 0 0.0 0.0 0.00 0.00 0.00 81 1014.3
20260510073545 39 0 0.0 0.0 0.00 0.00 0.00 80 1014.3
20260510073050 39 0 0.0 0.0 0.00 0.00 0.00 80 1014.2
20260510072545 39 0 0.0 0.0 0.00 0.00 0.00 79 1014.1
20260510072048 39 0 0.0 0.0 0.00 0.00 0.00 78 1014.0
20260510071548 39 0 0.0 0.0 0.00 0.00 0.00 77 1014.1
20260510071044 40 0 0.0 0.0 0.00 0.00 0.00 76 1014.0
20260510070544 40 0 0.0 0.0 0.00 0.00 0.00 75 1014.0
20260510070055 40 0 0.0 0.0 0.00 0.00 0.00 74 1014.0
20260510065545 40 0 0.0 0.0 0.00 0.00 0.00 74 1013.9
20260510065045 41 0 0.0 0.0 0.00 0.00 0.00 74 1013.8
20260510064546 41 0 0.0 0.0 0.00 0.00 0.00 74 1013.8
20260510064046 41 0 0.0 0.0 0.00 0.00 0.00 73 1013.7
20260510063544 41 0 0.0 0.0 0.00 0.00 0.00 73 1013.8
20260510063051 41 0 0.0 0.0 0.00 0.00 0.00 72 1013.8
20260510062547 42 0 0.0 0.0 0.00 0.00 0.00 71 1013.7
20260510062047 42 0 0.0 0.0 0.00 0.00 0.00 71 1013.7
20260510061546 42 0 0.0 0.0 0.00 0.00 0.00 71 1013.6
20260510061048 42 0 0.0 0.0 0.00 0.00 0.00 70 1013.5
20260510060547 43 0 0.0 0.0 0.00 0.00 0.00 70 1013.4
20260510060057 43 0 0.0 0.0 0.00 0.00 0.00 69 1013.2
20260510055546 44 0 0.0 2.0 0.00 0.00 0.00 67 1013.3
20260510055045 44 0 0.0 2.0 0.00 0.00 0.00 67 1013.2
20260510054549 44 0 0.0 2.0 0.00 0.00 0.00 66 1013.2
20260510054045 45 0 0.0 3.0 0.00 0.00 0.00 66 1013.0
20260510053548 45 0 0.0 4.0 0.00 0.00 0.00 65 1013.0
20260510053055 45 0 0.0 5.0 0.00 0.00 0.00 65 1012.9
20260510052544 45 26 1.0 5.0 0.00 0.00 0.00 64 1012.9
20260510052047 45 27 1.0 7.0 0.00 0.00 0.00 64 1013.0
20260510051638 46 9 2.0 7.0 0.00 0.00 0.00 63 1012.8
20260510051045 46 0 1.0 5.0 0.00 0.00 0.00 62 1012.9
20260510050547 46 336 1.0 8.0 0.00 0.00 0.00 61 1012.8
20260510050052 47 340 1.0 8.0 0.00 0.00 0.00 60 1012.8
20260510045547 47 343 1.0 7.0 0.00 0.00 0.00 59 1012.7
20260510045047 48 80 1.0 8.0 0.00 0.00 0.00 57 1012.6
20260510044549 48 15 2.0 8.0 0.00 0.00 0.00 55 1012.4
20260510044042 49 346 2.0 9.0 0.00 0.00 0.00 54 1012.4
20260510043543 49 11 2.0 9.0 0.00 0.00 0.00 51 1012.3
20260510043125 49 32 2.0 9.0 0.00 0.00 0.00 51 1012.1
20260510042542 49 26 3.0 9.0 0.00 0.00 0.00 51 1011.9
20260510042045 48 0 0.0 4.0 0.00 0.00 0.00 53 1011.7
20260510041554 48 0 0.0 0.0 0.00 0.00 0.00 53 1011.4
20260510041043 49 0 0.0 0.0 0.00 0.00 0.00 52 1011.3
20260510040545 49 0 0.0 0.0 0.00 0.00 0.00 53 1011.2
20260510040050 49 0 0.0 0.0 0.00 0.00 0.00 52 1011.0
20260510035544 49 0 0.0 0.0 0.00 0.00 0.00 52 1011.0
20260510035046 49 0 0.0 0.0 0.00 0.00 0.00 53 1011.0
20260510034550 50 0 0.0 0.0 0.00 0.00 0.00 54 1010.9
20260510034045 50 0 0.0 0.0 0.00 0.00 0.00 54 1010.9
20260510033545 50 0 0.0 0.0 0.00 0.00 0.00 54 1010.9
20260510033056 50 0 0.0 0.0 0.00 0.00 0.00 55 1010.7
20260510032543 50 0 0.0 0.0 0.00 0.00 0.00 55 1010.7
20260510032045 50 0 0.0 0.0 0.00 0.00 0.00 54 1010.7
20260510031621 51 0 0.0 0.0 0.00 0.00 0.00 55 1010.6
20260510031043 51 0 0.0 0.0 0.00 0.00 0.00 54 1010.6
20260510030543 51 0 0.0 0.0 0.00 0.00 0.00 54 1010.6
20260510030053 51 0 0.0 1.0 0.00 0.00 0.00 54 1010.6
20260510025542 51 0 0.0 1.0 0.00 0.00 0.00 53 1010.4
20260510025042 52 0 0.0 0.0 0.00 0.00 0.00 53 1010.3
20260510024552 52 0 0.0 0.0 0.00 0.00 0.00 53 1010.3
20260510024042 52 0 0.0 0.0 0.00 0.00 0.00 52 1010.2
20260510023543 53 0 0.0 0.0 0.00 0.00 0.00 52 1010.1
20260510023057 53 0 0.0 1.0 0.00 0.00 0.00 52 1009.9
20260510022543 53 0 0.0 1.0 0.00 0.00 0.00 52 1009.8
20260510022041 53 0 0.0 0.0 0.00 0.00 0.00 53 1009.7
20260510021556 53 0 0.0 0.0 0.00 0.00 0.00 53 1009.5
20260510021041 53 0 0.0 0.0 0.00 0.00 0.00 52 1009.5
20260510020546 53 0 0.0 0.0 0.00 0.00 0.00 52 1009.4
20260510020056 54 0 0.0 0.0 0.00 0.00 0.00 51 1009.2
20260510015543 54 0 0.0 0.0 0.00 0.00 0.00 50 1009.1
20260510015043 54 0 0.0 0.0 0.00 0.00 0.00 50 1008.9
20260510014557 55 0 0.0 0.0 0.00 0.00 0.00 49 1008.8
20260510014043 55 0 0.0 0.0 0.00 0.00 0.00 49 1008.6
20260510013547 55 0 0.0 0.0 0.00 0.00 0.00 48 1008.5
20260510013055 55 0 0.0 0.0 0.00 0.00 0.00 48 1008.3
20260510012546 56 0 0.0 0.0 0.00 0.00 0.00 46 1008.2
20260510012043 57 0 0.0 0.0 0.00 0.00 0.00 46 1008.1
20260510011608 57 0 0.0 2.0 0.00 0.00 0.00 45 1008.2
20260510011046 58 0 0.0 2.0 0.00 0.00 0.00 44 1008.0
20260510010545 58 0 0.0 4.0 0.00 0.00 0.00 43 1007.8
20260510010104 58 0 0.0 5.0 0.00 0.00 0.00 43 1007.8
20260510005547 59 0 1.0 5.0 0.00 0.00 0.00 42 1007.7
20260510005046 59 0 0.0 4.0 0.00 0.00 0.00 42 1007.6
20260510004553 59 0 0.0 6.0 0.00 0.00 0.00 42 1007.5
20260510004049 60 10 1.0 6.0 0.00 0.00 0.00 41 1007.5
20260510003547 60 360 1.0 6.0 0.00 0.00 0.00 41 1007.3
20260510003054 60 0 1.0 7.0 0.00 0.00 0.00 42 1007.3
20260510002547 60 355 1.0 7.0 0.00 0.00 0.00 42 1007.2
20260510002047 61 0 1.0 11.0 0.00 0.00 0.00 42 1007.1
20260510001554 61 31 1.0 11.0 0.00 0.00 0.00 42 1007.0
20260510001048 61 43 0.0 10.0 0.00 0.00 0.00 42 1006.8
20260510000546 61 0 0.0 10.0 0.00 0.00 0.00 43 1006.8
20260510000053 61 0 1.0 10.0 0.00 0.00 0.00 42 1006.7
20260509235546 61 24 1.0 8.0 0.00 0.00 0.00 43 1006.7
20260509235045 62 15 1.0 11.0 0.00 0.00 0.00 42 1006.5
20260509234550 62 20 1.0 11.0 0.00 0.00 0.00 42 1006.5
20260509234046 62 0 2.0 11.0 0.00 0.00 0.00 40 1006.5
20260509233546 62 36 2.0 7.0 0.00 0.00 0.00 42 1006.3
20260509233053 62 44 1.0 11.0 0.00 0.00 0.00 42 1006.3
20260509232545 62 13 1.0 11.0 0.00 0.00 0.00 42 1006.3
20260509232047 62 5 1.0 12.0 0.00 0.00 0.00 41 1006.2
20260509231602 63 84 1.0 12.0 0.00 0.00 0.00 42 1006.3
20260509231045 63 341 1.0 8.0 0.00 0.00 0.00 42 1006.1
20260509230546 63 301 2.0 10.0 0.00 0.00 0.00 41 1006.0
20260509230050 63 360 3.0 10.0 0.00 0.00 0.00 40 1006.0
20260509225546 63 51 1.0 8.0 0.00 0.00 0.00 40 1005.8
20260509225046 63 42 1.0 14.0 0.00 0.00 0.00 40 1005.9
20260509224548 64 40 1.0 14.0 0.00 0.00 0.00 39 1005.7
20260509224046 65 350 3.0 10.0 0.00 0.00 0.00 38 1005.6
20260509223547 65 17 2.0 7.0 0.00 0.00 0.00 39 1005.6
20260509223055 65 42 1.0 12.0 0.00 0.00 0.00 40 1005.5
20260509222542 64 56 1.0 12.0 0.00 0.00 0.00 38 1005.4
20260509222042 64 19 1.0 9.0 0.00 0.00 0.00 39 1005.4
20260509221558 65 0 1.0 12.0 0.00 0.00 0.00 40 1005.3
20260509221042 65 27 2.0 12.0 0.00 0.00 0.00 38 1005.2
20260509220541 65 112 4.0 11.0 0.00 0.00 0.00 38 1005.1
20260509220051 66 44 2.0 10.0 0.00 0.00 0.00 39 1005.1
20260509215542 66 302 2.0 9.0 0.00 0.00 0.00 40 1005.1
20260509215045 66 11 2.0 9.0 0.00 0.00 0.00 39 1004.9
20260509214547 66 0 1.0 12.0 0.00 0.00 0.00 40 1004.9
20260509214041 67 271 2.0 12.0 0.00 0.00 0.00 39 1004.9
20260509213541 67 360 2.0 12.0 0.00 0.00 0.00 38 1004.6
20260509213120 67 212 2.0 10.0 0.00 0.00 0.00 38 1004.6
20260509212544 68 0 3.0 10.0 0.00 0.00 0.00 37 1004.6
20260509212042 68 252 2.0 10.0 0.00 0.00 0.00 38 1004.5
20260509211614 69 0 0.0 6.0 0.00 0.00 0.00 43 1004.5
20260509211042 69 34 1.0 13.0 0.00 0.00 0.00 38 1004.5
20260509210542 69 336 4.0 13.0 0.00 0.00 0.00 38 1004.3
20260509210101 69 17 2.0 12.0 0.00 0.00 0.00 37 1004.3
20260509205543 70 36 2.0 8.0 0.00 0.00 0.00 39 1004.2
20260509205043 70 58 0.0 10.0 0.00 0.00 0.00 39 1004.2
20260509204604 71 259 3.0 10.0 0.00 0.00 0.00 38 1004.2
20260509204044 71 0 1.0 10.0 0.00 0.00 0.00 41 1004.0
20260509203543 70 285 2.0 12.0 0.00 0.00 0.00 40 1004.0
20260509203059 70 28 2.0 12.0 0.00 0.00 0.00 39 1004.0
20260509202546 70 23 4.0 12.0 0.00 0.00 0.00 38 1003.8
20260509202042 71 351 3.0 12.0 0.00 0.00 0.00 38 1003.8
20260509201553 71 355 3.0 12.0 0.00 0.00 0.00 36 1003.8
20260509201041 72 336 1.0 12.0 0.00 0.00 0.00 35 1003.6
20260509200541 70 295 1.0 12.0 0.00 0.00 0.00 39 1003.3
20260509200052 69 0 1.0 7.0 0.00 0.00 0.00 37 1003.4
20260509195544 69 302 1.0 7.0 0.00 0.00 0.00 37 1003.3
20260509195042 70 48 1.0 7.0 0.00 0.00 0.00 36 1003.4
20260509194556 72 325 1.0 7.0 0.00 0.00 0.00 36 1003.3
20260509194043 72 30 1.0 7.0 0.00 0.00 0.00 38 1003.3
20260509193543 73 0 2.0 9.0 0.00 0.00 0.00 35 1003.1
20260509193112 73 248 2.0 9.0 0.00 0.00 0.00 38 1003.1
20260509192546 72 0 1.0 9.0 0.00 0.00 0.00 42 1003.1
20260509192046 72 71 2.0 8.0 0.00 0.00 0.00 38 1003.0
20260509191549 72 0 1.0 8.0 0.00 0.00 0.00 38 1002.9
20260509191046 74 196 2.0 7.0 0.00 0.00 0.00 39 1002.8
20260509190545 73 326 1.0 9.0 0.00 0.00 0.00 40 1002.7
20260509190054 73 0 2.0 9.0 0.00 0.00 0.00 37 1002.7
20260509185547 73 109 1.0 9.0 0.00 0.00 0.00 37 1002.6
20260509185046 73 0 2.0 9.0 0.00 0.00 0.00 35 1002.7
20260509184550 73 0 1.0 9.0 0.00 0.00 0.00 43 1002.5
20260509184045 71 29 0.0 9.0 0.00 0.00 0.00 41 1002.5
20260509183545 72 82 2.0 5.0 0.00 0.00 0.00 36 1002.5
20260509183056 72 217 0.0 5.0 0.00 0.00 0.00 39 1002.4
20260509182546 72 142 0.0 7.0 0.00 0.00 0.00 40 1002.5
20260509182045 71 267 2.0 7.0 0.00 0.00 0.00 37 1002.5
20260509181607 70 47 0.0 6.0 0.00 0.00 0.00 43 1002.5
20260509181046 70 136 1.0 7.0 0.00 0.00 0.00 41 1002.4
20260509180546 71 180 2.0 7.0 0.00 0.00 0.00 40 1002.4
20260509180055 70 0 1.0 10.0 0.00 0.00 0.00 43 1002.4
20260509175547 70 201 2.0 10.0 0.00 0.00 0.00 40 1002.5
20260509175047 70 146 1.0 6.0 0.00 0.00 0.00 41 1002.4
20260509174554 69 168 1.0 8.0 0.00 0.00 0.00 39 1002.5
20260509174046 70 232 1.0 10.0 0.00 0.00 0.00 41 1002.6
20260509173545 69 217 2.0 10.0 0.00 0.00 0.00 41 1002.5
20260509173052 70 269 1.0 6.0 0.00 0.00 0.00 42 1002.7
20260509172546 70 202 1.0 6.0 0.00 0.00 0.00 41 1002.7
20260509172046 69 232 2.0 6.0 0.00 0.00 0.00 39 1002.7
20260509171607 69 0 1.0 8.0 0.00 0.00 0.00 44 1002.8
20260509171045 67 308 3.0 8.0 0.00 0.00 0.00 42 1002.7
20260509170545 67 192 2.0 7.0 0.00 0.00 0.00 43 1002.9
20260509170050 66 223 1.0 7.0 0.00 0.00 0.00 48 1002.7
20260509165545 65 189 1.0 7.0 0.00 0.00 0.00 44 1002.7
20260509165045 64 207 2.0 6.0 0.00 0.00 0.00 44 1002.9
20260509164557 64 219 1.0 5.0 0.00 0.00 0.00 43 1002.9
20260509164045 63 186 0.0 2.0 0.00 0.00 0.00 48 1003.0
20260509163547 63 0 0.0 5.0 0.00 0.00 0.00 44 1003.2
20260509163059 63 0 0.0 5.0 0.00 0.00 0.00 46 1003.1
20260509162545 62 200 0.0 5.0 0.00 0.00 0.00 42 1003.1
20260509162044 62 0 0.0 4.0 0.00 0.00 0.00 45 1003.2
20260509161551 63 201 1.0 4.0 0.00 0.00 0.00 42 1003.3
20260509161045 63 0 0.0 4.0 0.00 0.00 0.00 43 1003.3
20260509160546 63 0 0.0 4.0 0.00 0.00 0.00 47 1003.3
20260509160054 62 0 0.0 6.0 0.00 0.00 0.00 45 1003.3
20260509155545 63 107 1.0 6.0 0.00 0.00 0.00 43 1003.3
20260509155048 63 0 0.0 4.0 0.00 0.00 0.00 46 1003.3
20260509154553 63 0 0.0 4.0 0.00 0.00 0.00 43 1003.3
20260509154045 63 0 0.0 4.0 0.00 0.00 0.00 47 1003.2
20260509153545 64 0 0.0 6.0 0.00 0.00 0.00 45 1003.2
20260509153053 64 0 0.0 6.0 0.00 0.00 0.00 49 1003.3
20260509152545 64 80 0.0 4.0 0.00 0.00 0.00 51 1003.2
20260509152046 63 0 0.0 2.0 0.00 0.00 0.00 52 1003.1
20260509151552 62 0 0.0 4.0 0.00 0.00 0.00 55 1002.8
20260509151048 62 200 0.0 4.0 0.00 0.00 0.00 53 1002.7
20260509150546 61 202 0.0 4.0 0.00 0.00 0.00 53 1002.6
20260509150052 61 0 0.0 5.0 0.00 0.00 0.00 56 1002.6
20260509145544 60 0 0.0 5.0 0.00 0.00 0.00 56 1002.6
20260509145043 60 0 1.0 5.0 0.00 0.00 0.00 58 1002.4